QPF
0.00 0.00 0.00 0.00 0.00 0.00 0.00 0.00 0.00 0.00 0.00 0.00 0.00 0.00 0.00 0.00 0.00 0.00 0.00 0.00 0.00 0.00 0.00 0.00 0.00 0.00 0.00 0.00 0.00 0.00 0.00 0.00 0.00 0.00 0.00 0.00 0.00 0.00 0.00 0.00 0.00 0.00 0.00
0.00 0.00 0.00 0.00 0.00 0.00 0.00 0.00 0.00 0.00 0.00 0.00 0.00 0.00 0.00 0.00 0.00 0.00 0.00 0.00 0.00 0.00 0.00 0.00 0.00 0.00 0.00 0.00 0.00 0.00 0.00 0.00 0.00 0.00 0.00 0.00 0.00 0.00 0.00 0.00 0.00 0.00 0.00
0.00 0.00 0.00 0.00 0.00 0.00 0.00 0.00 0.00 0.00 0.00 0.00 0.00 0.00 0.00 0.00 0.00 0.00 0.00 0.00 0.00 0.00 0.00 0.00 0.00 0.00 0.00 0.00 0.00 0.00 0.00 0.00 0.00 0.00 0.00 0.00 0.00 0.00 0.00 0.00 0.00 0.00 0.00
0.00 0.00 0.00 0.00 0.00 0.00 0.00 0.00 0.00 0.00 0.00 0.00 0.00 0.00 0.00 0.00 0.00 0.00 0.00 0.00 0.00 0.00 0.00 0.00 0.00 0.00 0.00 0.00 0.00 0.00 0.00 0.00 0.00 0.00 0.00 0.00 0.00 0.00 0.00 0.00 0.00 0.00 0.00
0.00 0.00 0.00 0.00 0.00 0.00 0.00 0.00 0.00 0.00 0.00 0.00 0.00 0.00 0.00 0.00 0.00 0.00 0.00 0.00 0.00 0.00 0.00 0.00 0.00 0.00 0.00 0.00 0.00 0.00 0.00 0.00 0.00 0.00 0.00 0.00 0.00 0.00 0.00 0.00 0.00 0.00 0.00
0.00 0.00 0.00 0.00 0.00 0.00 0.00 0.00 0.00 0.00 0.00 0.00 0.00 0.00 0.00 0.00 0.00 0.00 0.00 0.00 0.00 0.00 0.00 0.00 0.00 0.00 0.00 0.00 0.00 0.00 0.00 0.00 0.00 0.00 0.00 0.00 0.00 0.00 0.00 0.00 0.00 0.00 0.00
0.00 0.00 0.00 0.00 0.00 0.00 0.00 0.00 0.00 0.00 0.00 0.00 0.00 0.00 0.00 0.00 0.00 0.00 0.00 0.00 0.00 0.00 0.00 0.00 0.00 0.00 0.00 0.00 0.00 0.00 0.00 0.00 0.00 0.00 0.00 0.00 0.00 0.00 0.00 0.00 0.00 0.00 0.00
0.00 0.00 0.00 0.00 0.00 0.00 0.00 0.00 0.00 0.00 0.00 0.00 0.00 0.00 0.00 0.00 0.00 0.00 0.00 0.00 0.00 0.00 0.00 0.00 0.00 0.00 0.00 0.00 0.00 0.00 0.00 0.00 0.00 0.00 0.00 0.00 0.00 0.00 0.00 0.00 0.00 0.00 0.00
0.00 0.00 0.00 0.00 0.00 0.00 0.00 0.00 0.00 0.00 0.00 0.00 0.00 0.00 0.00 0.00 0.00 0.00 0.00 0.00 0.00 0.00 0.00 0.00 0.00 0.00 0.00 0.00 0.00 0.00 0.00 0.00 0.00 0.00 0.00 0.00 0.00 0.00 0.00 0.00 0.00 0.00 0.00
0.00 0.00 0.00 0.00 0.00 0.00 0.00 0.00 0.00 0.00 0.00 0.00 0.00 0.00 0.00 0.00 0.00 0.00 0.00 0.00 0.00 0.00 0.00 0.00 0.00 0.00 0.00 0.00 0.00 0.00 0.00 0.00 0.00 0.00 0.00 0.00 0.00 0.00 0.00 0.00 0.00 0.00 0.00
0.00 0.00 0.00 0.00 0.00 0.00 0.00 0.00 0.00 0.00 0.00 0.00 0.00 0.00 0.00 0.00 0.00 0.00 0.00 0.00 0.00 0.00 0.00 0.00 0.00 0.00 0.00 0.00 0.00 0.00 0.00 0.00 0.00 0.00 0.00 0.00 0.00 0.00 0.00 0.00 0.00 0.00 0.00
0.00 0.00 0.00 0.00 0.00 0.00 0.00 0.00 0.00 0.00 0.00 0.00 0.00 0.00 0.00 0.00 0.00 0.00 0.00 0.00 0.00 0.00 0.00 0.00 0.00 0.00 0.00 0.00 0.00 0.00 0.00 0.00 0.00 0.00 0.00 0.00 0.00 0.00 0.00 0.00 0.00 0.00 0.00
0.00 0.00 0.00 0.00 0.00 0.00 0.00 0.00 0.00 0.00 0.00 0.00 0.00 0.00 0.00 0.00 0.00 0.00 0.00 0.00 0.00 0.00 0.00 0.00 0.00 0.00 0.00 0.00 0.00 0.00 0.00 0.00 0.00 0.00 0.00 0.00 0.00 0.00 0.00 0.00 0.00 0.00 0.00
0.00 0.00 0.00 0.00 0.00 0.00 0.00 0.00 0.00 0.00 0.00 0.00 0.00 0.00 0.00 0.00 0.00 0.00 0.00 0.00 0.00 0.00 0.00 0.00 0.00 0.00 0.00 0.00 0.00 0.00 0.00 0.00 0.00 0.00 0.00 0.00 0.00 0.00 0.00 0.00 0.00 0.00 0.00
0.00 0.00 0.00 0.00 0.00 0.00 0.00 0.00 0.00 0.00 0.00 0.00 0.00 0.00 0.00 0.00 0.00 0.00 0.00 0.00 0.00 0.00 0.00 0.00 0.00 0.00 0.00 0.00 0.00 0.00 0.00 0.00 0.00 0.00 0.00 0.00 0.00 0.00 0.00 0.00 0.00 0.00 0.00
0.00 0.00 0.00 0.00 0.00 0.00 0.00 0.00 0.00 0.00 0.00 0.00 0.00 0.00 0.00 0.00 0.00 0.00 0.00 0.00 0.00 0.00 0.00 0.00 0.00 0.00 0.00 0.00 0.00 0.00 0.00 0.00 0.00 0.00 0.00 0.00 0.00 0.00 0.00 0.00 0.00 0.00 0.00
0.00 0.00 0.00 0.00 0.00 0.00 0.00 0.00 0.00 0.00 0.00 0.00 0.00 0.00 0.00 0.00 0.00 0.00 0.00 0.00 0.00 0.00 0.00 0.00 0.00 0.00 0.00 0.00 0.00 0.00 0.00 0.00 0.00 0.00 0.00 0.00 0.00 0.00 0.00 0.00 0.00 0.00 0.00
0.00 0.00 0.00 0.00 0.00 0.00 0.00 0.00 0.00 0.00 0.00 0.00 0.00 0.00 0.00 0.00 0.00 0.00 0.00 0.00 0.00 0.00 0.00 0.00 0.00 0.00 0.00 0.00 0.00 0.00 0.00 0.00 0.00 0.00 0.00 0.00 0.00 0.00 0.00 0.00 0.00 0.00 0.00
0.00 0.00 0.00 0.00 0.00 0.00 0.00 0.00 0.00 0.00 0.00 0.00 0.00 0.00 0.00 0.00 0.00 0.00 0.00 0.00 0.00 0.00 0.00 0.00 0.00 0.00 0.00 0.00 0.00 0.00 0.00 0.00 0.00 0.00 0.00 0.00 0.00 0.00 0.00 0.00 0.00 0.00 0.00
0.00 0.00 0.00 0.00 0.00 0.00 0.00 0.00 0.00 0.00 0.00 0.00 0.00 0.00 0.00 0.00 0.00 0.00 0.00 0.00 0.00 0.00 0.00 0.00 0.00 0.00 0.00 0.00 0.00 0.00 0.00 0.00 0.00 0.00 0.00 0.00 0.00 0.00 0.00 0.00 0.00 0.00 0.00
0.00 0.00 0.00 0.00 0.00 0.00 0.00 0.00 0.00 0.00 0.00 0.00 0.00 0.00 0.00 0.00 0.00 0.00 0.00 0.00 0.00 0.00 0.00 0.00 0.00 0.00 0.00 0.00 0.00 0.00 0.00 0.00 0.00 0.00 0.00 0.00 0.00 0.00 0.00 0.00 0.00 0.00 0.00
0.00 0.00 0.00 0.00 0.00 0.00 0.00 0.00 0.00 0.00 0.00 0.00 0.00 0.00 0.00 0.00 0.00 0.00 0.00 0.00 0.00 0.00 0.00 0.00 0.00 0.00 0.00 0.00 0.00 0.00 0.00 0.00 0.00 0.00 0.00 0.00 0.00 0.00 0.00 0.00 0.00 0.00 0.00
0.00 0.00 0.00 0.00 0.00 0.00 0.00 0.00 0.00 0.00 0.00 0.00 0.00 0.00 0.00 0.00 0.00 0.00 0.00 0.00 0.00 0.00 0.00 0.00 0.00 0.00 0.00 0.00 0.00 0.00 0.00 0.00 0.00 0.00 0.00 0.00 0.00 0.00 0.00 0.00 0.00 0.00 0.00
0.00 0.00 0.00 0.00 0.00 0.00 0.00 0.00 0.00 0.00 0.00 0.00 0.00 0.00 0.00 0.00 0.00 0.00 0.00 0.00 0.00 0.00 0.00 0.00 0.00 0.00 0.00 0.00 0.00 0.00 0.00 0.00 0.00 0.00 0.00 0.00 0.00 0.00 0.00 0.00 0.00 0.00 0.00
0.00 0.00 0.00 0.00 0.00 0.00 0.00 0.00 0.00 0.00 0.00 0.00 0.00 0.00 0.00 0.00 0.00 0.00 0.00 0.00 0.00 0.00 0.00 0.00 0.00 0.00 0.00 0.00 0.00 0.00 0.00 0.00 0.00 0.00 0.00 0.00 0.00 0.00 0.00 0.00 0.00 0.00 0.00
0.00 0.00 0.00 0.00 0.00 0.00 0.00 0.00 0.00 0.00 0.00 0.00 0.00 0.00 0.00 0.00 0.00 0.00 0.00 0.00 0.00 0.00 0.00 0.00 0.00 0.00 0.00 0.00 0.00 0.00 0.00 0.00 0.00 0.00 0.00 0.00 0.00 0.00 0.00 0.00 0.00 0.00 0.00
MSLP
1005.97 1006.69 1007.50 1008.39 1009.14 1009.95 1010.61 1011.26 1011.92 1012.50 1012.90 1013.23 1013.63 1013.98 1014.40 1014.74 1014.93 1015.06 1015.17 1015.32 1015.42 1015.38 1015.11 1014.76 1014.74 1014.67 1014.42 1014.13 1014.02 1013.76 1013.12 1012.54 1011.58 1008.72 1008.22 1007.19 1006.39 1005.60 1004.23 1003.33 1002.39 1001.66 1001.00
1005.64 1006.46 1007.17 1007.96 1008.67 1009.42 1010.10 1010.72 1011.35 1011.93 1012.32 1012.80 1013.24 1013.57 1013.95 1014.25 1014.45 1014.64 1014.82 1014.96 1015.02 1014.83 1014.50 1014.51 1014.56 1014.30 1013.97 1013.64 1013.52 1013.07 1012.43 1011.87 1011.43 1009.94 1007.92 1007.08 1006.27 1004.97 1003.80 1002.65 1001.36 1000.48 999.98
1005.52 1006.23 1006.89 1007.38 1007.96 1008.64 1009.32 1010.05 1010.71 1011.27 1011.83 1012.38 1012.80 1013.18 1013.51 1013.80 1014.06 1014.22 1014.38 1014.52 1014.53 1014.32 1014.19 1014.26 1014.08 1014.02 1013.68 1013.23 1013.01 1012.47 1011.72 1011.15 1010.67 1009.83 1008.01 1007.09 1005.75 1004.32 1003.00 1001.70 1000.59 999.63 999.09
1004.95 1005.58 1006.17 1006.63 1007.14 1007.74 1008.45 1009.22 1009.94 1010.55 1011.29 1011.89 1012.27 1012.60 1012.98 1013.29 1013.56 1013.81 1013.98 1014.08 1014.06 1014.01 1013.91 1013.77 1013.58 1013.55 1013.40 1012.90 1012.45 1011.75 1010.94 1010.49 1009.74 1008.88 1007.66 1006.26 1005.23 1003.48 1002.77 1001.55 1000.14 999.57 998.99
1004.41 1005.05 1005.21 1005.81 1006.44 1007.16 1007.85 1008.55 1009.34 1010.08 1010.69 1011.21 1011.74 1012.19 1012.49 1012.84 1013.14 1013.35 1013.50 1013.75 1013.72 1013.57 1013.47 1013.25 1013.03 1012.95 1012.86 1012.45 1011.79 1010.88 1010.28 1009.55 1008.81 1007.90 1007.01 1006.17 1004.84 1003.40 1002.64 1001.72 1000.75 999.91 999.31
1003.69 1003.92 1004.40 1005.16 1005.84 1006.50 1007.32 1008.10 1008.84 1009.48 1010.06 1010.66 1011.18 1011.58 1012.07 1012.39 1012.58 1012.68 1012.91 1013.18 1013.16 1013.24 1013.06 1012.90 1012.62 1012.42 1012.22 1011.91 1011.37 1010.46 1009.62 1008.90 1008.21 1007.60 1006.98 1006.40 1005.05 1003.97 1002.75 1001.84 1001.07 1000.39 999.99
1003.05 1003.26 1003.65 1004.30 1005.04 1005.75 1006.57 1007.44 1008.19 1008.86 1009.53 1010.16 1010.66 1011.13 1011.70 1011.95 1012.07 1012.14 1012.37 1012.54 1012.83 1013.01 1012.91 1012.63 1012.46 1012.14 1012.04 1011.50 1010.75 1009.80 1009.05 1008.61 1008.04 1007.65 1007.04 1006.62 1005.59 1004.54 1003.38 1002.21 1001.72 1001.48 1001.32
1002.15 1002.60 1002.96 1003.47 1004.09 1004.96 1005.82 1006.68 1007.55 1008.29 1008.93 1009.73 1010.30 1010.75 1011.42 1011.50 1011.45 1011.51 1011.84 1012.17 1012.43 1012.52 1012.57 1012.38 1012.39 1012.04 1011.53 1010.94 1010.25 1009.59 1008.64 1008.20 1007.98 1007.66 1007.30 1006.74 1006.12 1005.09 1003.93 1003.17 1002.51 1002.15 1001.79
1001.55 1001.73 1002.03 1002.58 1003.36 1004.20 1004.97 1005.72 1006.60 1007.55 1008.47 1009.18 1009.72 1010.40 1010.93 1010.85 1010.79 1011.01 1011.40 1011.96 1012.50 1012.38 1011.93 1011.90 1011.87 1011.60 1011.16 1010.49 1009.82 1009.38 1008.65 1008.18 1007.95 1007.54 1007.33 1006.92 1006.20 1005.44 1004.45 1003.56 1003.16 1002.84 1002.55
1000.51 1000.26 1000.92 1001.63 1002.25 1002.99 1003.78 1004.87 1005.82 1006.71 1007.59 1008.57 1009.28 1009.67 1009.99 1010.24 1010.39 1010.58 1010.86 1011.52 1012.02 1012.03 1011.73 1011.50 1011.11 1010.81 1010.47 1010.02 1009.67 1009.21 1008.90 1008.69 1008.42 1007.70 1007.36 1007.02 1006.42 1005.99 1005.32 1004.89 1004.22 1003.73 1003.30
1000.82 1000.43 1000.65 1000.94 1001.44 1002.01 1003.05 1004.12 1005.11 1006.19 1007.13 1008.06 1008.78 1009.27 1009.66 1009.81 1010.00 1009.97 1010.09 1010.78 1011.14 1011.46 1011.62 1011.55 1010.75 1010.28 1009.88 1009.74 1009.33 1009.21 1008.78 1008.56 1008.44 1008.37 1008.34 1007.72 1006.97 1006.71 1006.29 1005.97 1005.39 1004.75 1004.23
1001.00 1000.66 1000.62 1000.78 1001.22 1001.74 1002.51 1003.59 1004.58 1005.52 1006.56 1007.47 1008.23 1008.77 1008.99 1009.19 1009.32 1009.20 1009.28 1009.54 1009.98 1010.73 1010.92 1010.74 1010.34 1009.92 1009.77 1009.88 1009.62 1009.35 1008.91 1008.79 1008.71 1008.70 1008.78 1008.68 1008.04 1007.59 1007.27 1006.95 1006.68 1006.13 1005.37
1002.16 1001.51 1001.02 1000.95 1001.20 1001.48 1002.13 1003.13 1004.22 1004.95 1005.71 1006.54 1007.25 1007.84 1008.08 1008.36 1008.72 1008.55 1008.78 1008.99 1009.28 1010.18 1009.99 1010.08 1009.86 1009.88 1010.01 1010.25 1010.12 1009.99 1009.49 1009.32 1009.26 1009.47 1009.84 1009.51 1008.94 1008.30 1007.82 1007.46 1007.46 1007.25 1006.60
1002.81 1002.18 1001.90 1001.68 1001.68 1001.86 1002.10 1002.52 1003.12 1003.98 1004.77 1005.52 1006.23 1006.74 1007.12 1007.58 1007.84 1008.15 1008.27 1008.43 1008.78 1009.27 1009.61 1009.86 1009.91 1009.88 1010.22 1010.28 1010.67 1010.67 1009.95 1009.83 1009.82 1009.85 1009.84 1009.81 1009.04 1008.59 1008.17 1007.90 1008.20 1008.17 1007.79
1003.32 1002.68 1002.38 1002.25 1002.11 1002.01 1002.13 1002.26 1002.40 1002.55 1002.83 1003.74 1004.43 1005.12 1005.88 1006.47 1006.34 1006.76 1007.34 1008.06 1008.58 1009.10 1009.93 1010.17 1010.28 1010.27 1010.47 1010.87 1011.28 1011.08 1010.52 1010.15 1010.19 1010.06 1010.12 1010.13 1009.78 1009.46 1009.01 1008.64 1008.86 1008.87 1008.84
1003.99 1003.34 1002.97 1002.66 1002.39 1002.22 1002.28 1002.52 1002.34 1002.43 1002.65 1003.06 1003.58 1004.07 1004.55 1004.89 1005.14 1005.77 1006.40 1007.17 1007.81 1008.57 1009.54 1010.07 1010.23 1010.18 1010.63 1010.77 1011.44 1011.43 1011.10 1010.69 1010.73 1010.48 1010.47 1010.30 1009.99 1009.85 1009.76 1009.58 1009.62 1009.81 1009.85
1004.49 1004.15 1003.42 1002.81 1002.17 1002.22 1002.41 1002.45 1002.52 1002.52 1002.58 1002.75 1002.90 1003.27 1003.55 1003.98 1004.56 1004.74 1005.46 1006.40 1007.18 1007.97 1008.72 1009.31 1009.53 1009.66 1010.02 1010.35 1010.82 1011.26 1011.26 1010.95 1010.65 1010.78 1010.75 1010.93 1010.48 1010.12 1010.08 1010.21 1010.19 1010.42 1010.55
1006.09 1005.04 1003.58 1003.06 1001.75 1001.40 1001.98 1002.11 1002.08 1002.28 1002.10 1001.94 1002.13 1002.37 1002.89 1003.30 1003.96 1004.30 1004.86 1005.96 1006.74 1007.31 1007.87 1008.45 1008.65 1009.19 1009.67 1009.91 1010.34 1010.96 1011.14 1011.13 1011.03 1011.08 1010.97 1011.38 1011.00 1010.82 1010.95 1011.04 1010.93 1010.96 1011.22
1006.40 1004.48 1003.94 1003.02 1001.31 1000.58 1000.93 1001.80 1001.67 1001.66 1001.62 1001.40 1001.33 1001.73 1002.23 1002.46 1003.07 1003.92 1004.38 1004.99 1005.66 1006.54 1007.19 1007.73 1007.77 1008.16 1009.09 1009.40 1009.79 1010.49 1011.07 1011.05 1011.12 1011.23 1011.22 1011.51 1011.53 1011.33 1011.48 1011.77 1011.94 1011.89 1011.90
1005.86 1005.31 1004.62 1002.99 1001.62 1000.38 1000.47 1001.26 1001.13 1001.15 1001.24 1000.93 1000.57 1000.66 1001.26 1001.98 1002.23 1002.69 1003.31 1004.10 1004.64 1005.28 1005.79 1006.36 1007.12 1007.55 1008.13 1008.86 1009.51 1010.17 1010.82 1011.08 1011.18 1011.42 1011.33 1011.61 1011.66 1011.80 1012.16 1012.28 1012.53 1012.85 1013.21
1005.93 1005.45 1004.38 1003.54 1001.79 1000.59 1000.00 1000.71 1000.60 1000.08 1000.06 1000.01 999.56 1000.25 1000.49 1000.57 1000.88 1001.47 1002.22 1002.90 1003.12 1003.82 1004.63 1005.22 1005.99 1006.86 1007.24 1007.93 1008.84 1009.67 1010.31 1010.71 1010.94 1011.33 1011.35 1011.61 1011.64 1012.11 1012.46 1012.73 1013.22 1013.67 1014.15
1006.26 1005.82 1004.79 1003.41 1001.89 1000.39 999.97 1000.09 1000.10 999.48 998.48 999.02 999.68 999.83 999.98 1000.17 1000.35 1000.62 1000.93 1001.43 1002.09 1002.16 1002.85 1004.04 1004.94 1005.70 1006.04 1006.70 1007.68 1008.64 1009.41 1010.19 1010.71 1010.90 1011.16 1011.58 1011.77 1012.24 1012.65 1013.07 1013.65 1014.27 1014.85
1005.53 1005.51 1004.85 1002.79 1001.67 1000.30 999.88 999.01 999.28 998.65 998.14 997.98 999.40 999.43 999.10 999.47 999.47 999.86 1000.15 1000.60 1000.92 1001.46 1002.05 1002.98 1003.90 1004.95 1005.18 1005.71 1006.57 1007.22 1008.15 1008.89 1009.60 1010.21 1010.71 1011.30 1011.69 1012.08 1012.62 1013.24 1013.85 1014.54 1015.20
1005.04 1004.56 1004.21 1002.20 1001.41 1000.41 999.44 998.89 998.92 997.65 997.28 997.15 998.52 998.02 997.75 998.24 998.50 999.04 999.42 999.88 1000.19 1000.67 1001.07 1001.93 1002.71 1003.56 1004.32 1004.96 1005.71 1006.56 1007.23 1008.03 1008.79 1009.55 1010.15 1010.72 1011.39 1012.05 1012.78 1013.32 1014.07 1014.87 1015.52
1004.32 1003.41 1002.85 1002.49 1001.45 1000.25 999.10 998.70 997.40 996.48 996.21 996.80 997.16 996.85 996.94 997.38 997.59 997.90 998.17 998.75 999.04 999.95 1000.51 1001.01 1001.59 1002.51 1003.08 1003.90 1004.82 1005.87 1006.86 1007.55 1008.17 1009.10 1010.07 1010.62 1011.15 1011.80 1012.64 1013.37 1014.10 1015.15 1015.95
1003.52 1003.18 1002.70 1002.21 1000.14 999.50 998.50 998.02 997.28 996.25 995.83 996.13 995.96 995.69 995.66 996.08 996.40 996.70 996.89 997.58 998.26 998.97 999.68 1000.19 1000.73 1001.51 1002.06 1003.15 1004.18 1005.17 1006.31 1007.09 1007.83 1008.65 1009.60 1010.40 1011.10 1011.83 1012.60 1013.44 1014.12 1014.99 1015.95
Thickness
5601 5597 5591 5585 5579 5573 5568 5562 5556 5552 5548 5544 5538 5533 5527 5521 5515 5508 5502 5495 5487 5480 5475 5470 5460 5449 5439 5428 5414 5401 5389 5377 5365 5368 5354 5343 5330 5318 5312 5305 5303 5303 5310
5594 5588 5584 5578 5573 5567 5562 5556 5551 5546 5542 5536 5531 5526 5520 5515 5509 5502 5496 5488 5482 5476 5472 5463 5451 5443 5433 5422 5409 5397 5386 5369 5352 5347 5341 5333 5318 5310 5302 5299 5300 5299 5302
5584 5579 5574 5572 5568 5563 5558 5552 5547 5540 5535 5529 5524 5519 5514 5508 5502 5496 5489 5483 5477 5472 5465 5456 5447 5437 5428 5418 5405 5393 5384 5368 5349 5336 5335 5321 5314 5311 5306 5304 5304 5306 5307
5579 5574 5571 5568 5564 5560 5555 5549 5542 5536 5530 5523 5518 5514 5508 5502 5496 5490 5483 5477 5471 5465 5458 5451 5443 5433 5423 5414 5401 5391 5382 5364 5350 5338 5331 5327 5319 5316 5307 5308 5313 5310 5310
5572 5568 5570 5564 5559 5555 5550 5543 5536 5529 5523 5518 5512 5507 5502 5496 5490 5483 5477 5471 5466 5459 5453 5448 5440 5431 5420 5412 5402 5395 5383 5368 5354 5345 5338 5328 5324 5320 5314 5312 5313 5315 5315
5564 5567 5565 5559 5553 5549 5543 5535 5529 5523 5517 5511 5506 5502 5496 5490 5485 5480 5474 5467 5462 5455 5449 5442 5436 5428 5419 5409 5399 5393 5386 5372 5358 5349 5339 5328 5325 5320 5318 5315 5313 5313 5317
5559 5560 5559 5555 5549 5544 5536 5528 5523 5517 5510 5505 5500 5494 5488 5482 5479 5474 5469 5462 5456 5448 5444 5438 5430 5424 5414 5407 5400 5394 5386 5372 5358 5348 5340 5328 5325 5320 5318 5319 5312 5309 5309
5554 5552 5553 5551 5546 5537 5530 5523 5516 5508 5503 5497 5491 5485 5477 5473 5473 5470 5464 5455 5448 5443 5437 5432 5424 5417 5413 5408 5402 5392 5388 5375 5357 5347 5339 5330 5324 5322 5321 5318 5315 5313 5317
5544 5546 5546 5543 5535 5527 5523 5518 5511 5501 5492 5488 5482 5476 5470 5468 5468 5464 5458 5447 5440 5438 5434 5428 5421 5415 5412 5409 5403 5393 5386 5375 5360 5352 5341 5332 5329 5327 5325 5325 5320 5317 5321
5538 5543 5537 5532 5526 5522 5518 5510 5499 5494 5489 5481 5474 5469 5466 5463 5460 5457 5452 5441 5434 5430 5428 5423 5422 5418 5414 5409 5402 5395 5384 5370 5358 5351 5343 5334 5332 5328 5326 5323 5324 5321 5321
5512 5519 5522 5521 5519 5516 5508 5499 5491 5483 5475 5470 5463 5459 5455 5452 5449 5451 5449 5437 5433 5425 5418 5416 5415 5417 5415 5407 5403 5394 5387 5374 5362 5350 5341 5335 5333 5329 5326 5322 5321 5323 5324
5492 5499 5503 5505 5506 5503 5498 5487 5480 5474 5466 5461 5456 5452 5448 5445 5443 5445 5445 5441 5434 5425 5419 5415 5410 5413 5410 5402 5398 5392 5387 5375 5363 5353 5340 5335 5331 5328 5325 5322 5319 5318 5322
5467 5475 5481 5485 5488 5487 5483 5476 5469 5464 5460 5454 5450 5446 5445 5439 5435 5438 5436 5434 5431 5419 5415 5413 5412 5408 5402 5394 5391 5385 5380 5371 5359 5347 5336 5330 5329 5328 5327 5325 5321 5317 5317
5443 5450 5454 5460 5463 5465 5466 5465 5463 5457 5451 5446 5442 5439 5438 5432 5430 5427 5426 5424 5423 5417 5412 5405 5402 5400 5395 5390 5382 5376 5376 5367 5359 5349 5340 5334 5334 5331 5327 5324 5317 5313 5313
5421 5427 5431 5436 5442 5445 5448 5450 5452 5452 5452 5445 5442 5439 5433 5428 5427 5426 5420 5414 5411 5406 5396 5393 5390 5387 5383 5378 5373 5371 5370 5367 5358 5353 5341 5332 5333 5330 5327 5321 5314 5311 5308
5398 5407 5409 5415 5418 5422 5428 5427 5433 5435 5435 5436 5434 5432 5428 5427 5426 5421 5416 5411 5407 5401 5388 5382 5382 5381 5376 5374 5367 5364 5363 5363 5355 5351 5343 5336 5333 5329 5325 5319 5312 5305 5300
5371 5378 5388 5393 5402 5406 5409 5413 5415 5416 5421 5423 5425 5424 5422 5420 5416 5415 5411 5404 5400 5394 5380 5377 5379 5379 5374 5370 5366 5361 5359 5359 5356 5351 5346 5338 5334 5331 5324 5317 5311 5304 5297
5335 5345 5362 5372 5386 5394 5393 5396 5401 5405 5409 5414 5415 5416 5413 5410 5406 5404 5401 5395 5390 5387 5375 5376 5376 5370 5366 5365 5361 5357 5355 5353 5352 5349 5347 5339 5336 5330 5321 5313 5309 5307 5301
5307 5329 5338 5352 5370 5380 5383 5381 5388 5394 5398 5402 5403 5405 5403 5402 5399 5394 5392 5381 5383 5380 5372 5367 5370 5369 5360 5359 5358 5352 5348 5348 5348 5345 5343 5337 5335 5332 5325 5316 5311 5310 5308
5290 5299 5310 5331 5347 5364 5369 5368 5375 5381 5383 5391 5396 5399 5393 5392 5394 5391 5387 5382 5379 5376 5373 5372 5365 5363 5360 5354 5350 5346 5341 5341 5341 5338 5339 5337 5334 5332 5324 5319 5316 5310 5305
5261 5271 5285 5301 5324 5339 5353 5354 5361 5371 5377 5380 5390 5382 5383 5389 5391 5389 5383 5379 5380 5378 5372 5369 5363 5359 5358 5352 5346 5341 5337 5337 5337 5333 5334 5332 5332 5328 5324 5320 5313 5307 5303
5231 5243 5257 5280 5301 5320 5330 5339 5344 5358 5373 5372 5369 5369 5373 5378 5381 5383 5383 5379 5376 5379 5375 5367 5361 5356 5356 5352 5346 5340 5334 5330 5329 5329 5329 5326 5326 5323 5320 5316 5311 5305 5300
5208 5218 5233 5261 5277 5294 5309 5327 5334 5346 5359 5364 5354 5358 5364 5369 5374 5375 5375 5372 5373 5372 5369 5363 5356 5351 5351 5349 5345 5342 5336 5332 5329 5327 5325 5322 5321 5318 5315 5312 5308 5303 5298
5181 5196 5211 5239 5256 5272 5290 5306 5316 5335 5346 5352 5345 5354 5361 5365 5369 5367 5367 5366 5366 5367 5365 5360 5354 5350 5346 5344 5341 5337 5333 5329 5325 5323 5322 5319 5316 5312 5308 5305 5300 5295 5293
5154 5175 5197 5212 5232 5251 5269 5285 5312 5329 5337 5336 5339 5348 5353 5357 5361 5363 5365 5362 5364 5361 5357 5355 5352 5348 5346 5342 5337 5332 5326 5323 5321 5317 5313 5311 5309 5306 5303 5299 5295 5286 5283
5125 5142 5163 5188 5223 5236 5255 5270 5286 5310 5320 5324 5333 5343 5348 5352 5357 5358 5362 5359 5358 5357 5353 5350 5349 5346 5344 5338 5333 5327 5320 5316 5314 5311 5307 5304 5301 5298 5295 5291 5287 5283 5277